Location: Binningen
(47.7924°N, 8.7261°E)
Time: 13:59:38
(UTC+00:00)

MetOp-B - Pass Details

Date: 17 May 2021
Orbit: 819 x 821 km, 98.7° (Epoch: 19 June)

Event Time Altitude Azimuth Distance (km) Brightness Sun altitude
Exits shadow 19:50:26 - 151° (SSE) 2,618 6.2 -7.8°
Reaches altitude 10° 19:50:58 10° 150° (SSE) 2,413 6.0 -7.9°
Maximum altitude 19:56:14 63° 70° (ENE) 917 4.3 -8.5°
Drops below altitude 10° 20:01:32 10° 351° (N) 2,428 7.4 -9.2°
Sets 20:03:54 0° 349° (NNW) 3,364 8.3 -9.5°
